Terug naar catalogus

TIANLIAN-2 04

ActiefCommunicatieGEO
NORAD 63361·PAYLOAD·🇨🇳 China

Gelanceerd Mar 26, 2025 vanaf Xichang Satellite Launch Center

Loading…

TLE

VersSource: Space-Track

Epoch: Sep 14, 2026, 14:10 UTC

1 63361U 25062A   26257.59096108 -.00000146  00000-0  00000-0 0  9996
2 63361   4.1513 273.2008 0032815   8.1122   5.0223  1.00270684  5500

Volg TIANLIAN-2 04 in realtime met AllMySat

Download on the App Store